Location: Augusta
(33.4710°N, 81.9750°W)
Time: 02:10:25
(UTC-04:00)

Hubble Space Telescope - Visible Passes

Search period start: 28 September 2020 00:00
Search period end: 08 October 2020 00:00
Orbit: 536 x 540 km, 28.5° (Epoch: 27 September)

Date Brightness Start Highest point End Pass type
(mag) Time Alt. Az. Time Alt. Az. Time Alt. Az.
28 Sep 3.3 04:55:43 16° ESE 04:55:43 16° ESE 04:56:51 10° ESE visible
28 Sep 1.6 06:31:03 14° WSW 06:34:13 41° S 06:38:06 10° ESE visible
29 Sep 3.6 04:45:39 13° ESE 04:45:39 13° ESE 04:46:13 10° ESE visible
29 Sep 1.5 06:20:59 20° WSW 06:23:27 41° S 06:27:20 10° ESE visible
30 Sep 1.5 06:10:55 26° SW 06:12:41 40° S 06:16:34 10° ESE visible
01 Oct 1.5 06:00:52 33° SW 06:01:55 39° S 06:05:46 10° ESE visible
02 Oct 1.5 05:50:51 36° SSW 05:51:09 36° S 05:54:57 10° ESE visible
03 Oct 1.9 05:40:52 32° S 05:40:52 32° S 05:44:06 10° SE visible
04 Oct 2.4 05:30:55 24° SSE 05:30:55 24° SSE 05:33:13 10° SE visible
05 Oct 3.0 05:21:02 17° SSE 05:21:02 17° SSE 05:22:16 10° SE visible
06 Oct 3.6 05:11:11 10° SE 05:11:11 10° SE 05:11:16 10° SE visible
